When you browse on this site, cookies collect data to enhance your experience and personalize the content and advertising you see.
Visit our Privacy Policy to learn more. By continuing to use the site, you agree to this use of cookies and data.
  • en Suisse
  • Liste des pays
  • À 7 jours
  • Température de l'eau
  • Carte météo
  • Widgets météo
  • user-avatar
    Se connecter

    Météo par heure à Vanadzor

    Ce jour, 21 Août, Mercredi

    Heure Température Précipitation Vent Pression Humidité
    00:00 +16°C° 0 mm 1 m/s 638 mmHg 45%
    01:00 +16°C° 0 mm 1 m/s 638 mmHg 44%
    02:00 +16°C° 0 mm 1 m/s 638 mmHg 43%
    03:00 +15°C° 0 mm 1 m/s 638 mmHg 43%
    04:00 +15°C° 0 mm 1 m/s 638 mmHg 44%
    05:00 +15°C° 0 mm 1 m/s 638 mmHg 45%
    06:00 +15°C° 0 mm 1 m/s 638 mmHg 46%
    07:00 +19°C° 0 mm 1 m/s 639 mmHg 43%
    08:00 +21°C° 0 mm 1 m/s 639 mmHg 39%
    09:00 +24°C° 0 mm 2 m/s 640 mmHg 35%
    10:00 +25°C° 0 mm 2 m/s 640 mmHg 35%
    11:00 +26°C° 0 mm 2 m/s 640 mmHg 34%
    12:00 +27°C° 0 mm 2 m/s 640 mmHg 33%
    13:00 +28°C° 0 mm 3 m/s 639 mmHg 34%
    14:00 +28°C° 0 mm 3 m/s 639 mmHg 35%
    15:00 +28°C° 0 mm 3 m/s 639 mmHg 35%
    16:00 +27°C° 0 mm 3 m/s 638 mmHg 41%
    17:00 +25°C° 0 mm 2 m/s 637 mmHg 46%
    18:00 +24°C° 0 mm 2 m/s 637 mmHg 51%
    19:00 +21°C° 0 mm 2 m/s 636 mmHg 51%
    20:00 +19°C° 0 mm 2 m/s 636 mmHg 52%
    21:00 +18°C° 0 mm 1 m/s 636 mmHg 52%
    22:00 +18°C° 0 mm 1 m/s 636 mmHg 51%
    23:00 +16°C° 0 mm 1 m/s 636 mmHg 51%

    Demain, 22 Août, Jeudi

    Heure Température Précipitation Vent Pression Humidité
    00:00 +16°C° 0 mm 1 m/s 636 mmHg 50%
    01:00 +16°C° 0 mm 1 m/s 636 mmHg 50%
    02:00 +15°C° 0 mm 1 m/s 635 mmHg 51%
    03:00 +15°C° 0 mm 1 m/s 635 mmHg 51%
    04:00 +15°C° 0 mm 1 m/s 635 mmHg 53%
    05:00 +15°C° 0 mm 1 m/s 635 mmHg 55%
    06:00 +15°C° 0 mm 1 m/s 635 mmHg 56%
    07:00 +18°C° 0 mm 1 m/s 636 mmHg 52%
    08:00 +20°C° 0 mm 2 m/s 636 mmHg 47%
    09:00 +23°C° 0 mm 2 m/s 637 mmHg 42%
    10:00 +24°C° 0 mm 2 m/s 637 mmHg 41%
    11:00 +26°C° 0 mm 3 m/s 637 mmHg 40%
    12:00 +27°C° 0 mm 3 m/s 637 mmHg 39%
    13:00 +27°C° 0 mm 3 m/s 636 mmHg 39%
    14:00 +27°C° 0 mm 3 m/s 636 mmHg 39%
    15:00 +27°C° 0 mm 4 m/s 636 mmHg 40%
    16:00 +26°C° 0 mm 3 m/s 635 mmHg 44%
    17:00 +24°C° 0 mm 3 m/s 635 mmHg 49%
    18:00 +22°C° 0 mm 3 m/s 635 mmHg 54%
    19:00 +20°C° 0 mm 2 m/s 635 mmHg 54%
    20:00 +18°C° 0 mm 2 m/s 635 mmHg 53%
    21:00 +17°C° 0 mm 2 m/s 635 mmHg 53%
    22:00 +16°C° 0 mm 2 m/s 635 mmHg 51%
    23:00 +16°C° 0 mm 2 m/s 635 mmHg 49%

    Après-demain, 23 Août, Vendredi

    Heure Température Précipitation Vent Pression Humidité
    00:00 +16°C° 0 mm 1 m/s 635 mmHg 46%
    01:00 +15°C° 0 mm 1 m/s 635 mmHg 47%
    02:00 +15°C° 0 mm 1 m/s 635 mmHg 48%
    03:00 +14°C° 0 mm 1 m/s 635 mmHg 49%
    04:00 +14°C° 0 mm 1 m/s 635 mmHg 52%
    05:00 +14°C° 0 mm 1 m/s 635 mmHg 54%
    06:00 +14°C° 0 mm 1 m/s 635 mmHg 57%
    07:00 +16°C° 0 mm 1 m/s 635 mmHg 52%
    08:00 +18°C° 0 mm 2 m/s 636 mmHg 48%
    09:00 +21°C° 0 mm 2 m/s 637 mmHg 43%
    10:00 +23°C° 0 mm 2 m/s 637 mmHg 42%
    11:00 +24°C° 0 mm 3 m/s 637 mmHg 40%
    12:00 +26°C° 0 mm 3 m/s 637 mmHg 39%
    13:00 +26°C° 0 mm 3 m/s 637 mmHg 39%
    14:00 +26°C° 0 mm 3 m/s 637 mmHg 38%
    15:00 +27°C° 0 mm 4 m/s 636 mmHg 38%
    16:00 +25°C° 0 mm 3 m/s 636 mmHg 43%
    17:00 +24°C° 0 mm 3 m/s 636 mmHg 47%
    18:00 +23°C° 0 mm 2 m/s 635 mmHg 52%
    19:00 +20°C° 0 mm 2 m/s 635 mmHg 53%
    20:00 +19°C° 0 mm 2 m/s 635 mmHg 54%
    21:00 +17°C° 0 mm 2 m/s 635 mmHg 55%
    22:00 +18°C° 0 mm 1 m/s 635 mmHg 56%
    23:00 +16°C° 0 mm 1 m/s 635 mmHg 56%

    24 Août, Samedi

    Heure Température Précipitation Vent Pression Humidité
    00:00 +16°C° 0 mm 1 m/s 635 mmHg 57%
    01:00 +16°C° 0 mm 1 m/s 635 mmHg 58%
    02:00 +15°C° 0 mm 1 m/s 635 mmHg 59%
    03:00 +15°C° 0 mm 1 m/s 635 mmHg 61%
    04:00 +15°C° 0 mm 1 m/s 635 mmHg 62%
    05:00 +15°C° 0 mm 1 m/s 635 mmHg 63%
    06:00 +15°C° 0 mm 1 m/s 635 mmHg 65%
    07:00 +18°C° 0 mm 1 m/s 636 mmHg 58%
    08:00 +21°C° 0 mm 1 m/s 637 mmHg 52%
    09:00 +24°C° 0 mm 1 m/s 638 mmHg 46%
    10:00 +25°C° 0 mm 2 m/s 638 mmHg 44%
    11:00 +26°C° 0 mm 2 m/s 638 mmHg 41%
    12:00 +27°C° 0 mm 2 m/s 638 mmHg 39%
    13:00 +27°C° 0 mm 2 m/s 638 mmHg 40%
    14:00 +28°C° 0 mm 2 m/s 638 mmHg 40%
    15:00 +28°C° 0 mm 3 m/s 638 mmHg 40%
    16:00 +26°C° 0.1 mm 3 m/s 638 mmHg 47%
    17:00 +25°C° 0.1 mm 3 m/s 637 mmHg 53%
    18:00 +22°C° 0.1 mm 3 m/s 637 mmHg 60%
    19:00 +20°C° 0.6 mm 2 m/s 637 mmHg 68%
    20:00 +18°C° 0.6 mm 2 m/s 637 mmHg 77%
    21:00 +16°C° 0.6 mm 1 m/s 637 mmHg 85%
    22:00 +16°C° 0 mm 1 m/s 637 mmHg 84%
    23:00 +16°C° 0 mm 1 m/s 637 mmHg 83%

    25 Août, Dimanche

    Heure Température Précipitation Vent Pression Humidité
    00:00 +16°C° 0 mm 1 m/s 637 mmHg 82%
    01:00 +16°C° 0 mm 1 m/s 637 mmHg 80%
    02:00 +16°C° 0 mm 1 m/s 637 mmHg 77%
    03:00 +16°C° 0 mm 1 m/s 636 mmHg 75%
    04:00 +16°C° 0 mm 1 m/s 636 mmHg 75%
    05:00 +16°C° 0 mm 1 m/s 636 mmHg 75%
    06:00 +16°C° 0 mm 1 m/s 636 mmHg 75%
    07:00 +19°C° 0 mm 1 m/s 637 mmHg 68%
    08:00 +21°C° 0 mm 1 m/s 638 mmHg 61%
    09:00 +24°C° 0 mm 1 m/s 638 mmHg 54%
    10:00 +25°C° 0 mm 1 m/s 638 mmHg 52%
    11:00 +26°C° 0 mm 2 m/s 639 mmHg 49%
    12:00 +27°C° 0 mm 2 m/s 639 mmHg 46%
    13:00 +28°C° 0.2 mm 2 m/s 638 mmHg 46%
    14:00 +28°C° 0.2 mm 2 m/s 638 mmHg 45%
    15:00 +28°C° 0.2 mm 3 m/s 638 mmHg 45%
    16:00 +27°C° 0.1 mm 2 m/s 637 mmHg 51%
    17:00 +25°C° 0.1 mm 2 m/s 637 mmHg 57%
    18:00 +24°C° 0.1 mm 2 m/s 636 mmHg 64%
    19:00 +21°C° 0.4 mm 2 m/s 636 mmHg 69%
    20:00 +20°C° 0.4 mm 2 m/s 636 mmHg 73%
    21:00 +19°C° 0.4 mm 1 m/s 636 mmHg 78%
    22:00 +19°C° 0.3 mm 1 m/s 636 mmHg 79%
    23:00 +19°C° 0.3 mm 1 m/s 636 mmHg 80%

    26 Août, Lundi

    Heure Température Précipitation Vent Pression Humidité
    00:00 +18°C° 0.3 mm 1 m/s 636 mmHg 81%
    01:00 +18°C° 0.1 mm 1 m/s 636 mmHg 80%
    02:00 +16°C° 0.1 mm 1 m/s 636 mmHg 79%
    03:00 +16°C° 0.1 mm 1 m/s 636 mmHg 79%
    04:00 +16°C° 0 mm 1 m/s 636 mmHg 79%
    05:00 +16°C° 0 mm 1 m/s 636 mmHg 79%
    06:00 +16°C° 0 mm 1 m/s 636 mmHg 79%
    07:00 +19°C° 0 mm 1 m/s 636 mmHg 72%
    08:00 +21°C° 0 mm 1 m/s 637 mmHg 64%
    09:00 +23°C° 0 mm 1 m/s 637 mmHg 57%
    10:00 +25°C° 0 mm 2 m/s 638 mmHg 53%
    11:00 +26°C° 0 mm 2 m/s 638 mmHg 50%
    12:00 +27°C° 0 mm 2 m/s 638 mmHg 46%
    13:00 +27°C° 0.3 mm 2 m/s 638 mmHg 47%
    14:00 +27°C° 0.3 mm 3 m/s 637 mmHg 49%
    15:00 +27°C° 0.3 mm 3 m/s 637 mmHg 51%
    16:00 +26°C° 0.2 mm 3 m/s 636 mmHg 57%
    17:00 +24°C° 0.2 mm 2 m/s 636 mmHg 63%
    18:00 +21°C° 0.2 mm 2 m/s 636 mmHg 68%
    19:00 +20°C° 0.2 mm 2 m/s 636 mmHg 73%
    20:00 +18°C° 0.2 mm 2 m/s 636 mmHg 78%
    21:00 +16°C° 0.2 mm 2 m/s 636 mmHg 83%
    22:00 +16°C° 0 mm 1 m/s 636 mmHg 82%
    23:00 +16°C° 0 mm 1 m/s 636 mmHg 81%
    Voir plus